AZERSPACE 1

Last updated on Fri Jul 11 2025 00:02:43 GMT+0000 (Coordinated Universal Time)

1 39079U 13006B 25191.57085464 .00000145 00000+0 00000+0 0 9993 2 39079 0.0193 310.0946 0001724 182.5439 47.6053 1.00273532 45380
UTC large
Height (km)
Speed (km/s)
/
Latitude / Longitude
Inclination (degrees)
Orbital Period (minutes)
Azimuth
Elevation
Range (km)
Doppler Factor

Next 0 passes for location: London (51.5072 / 0.1276)

Sorry there are no passes over London.